一网星座-0157星 (ONEWEB-0157 )

导读 | 星芒AI

ONEWEB-0157 是 OneWeb 卫星通信公司发射的低轨通信卫星之一,属于其全球宽带互联网星座计划。该卫星运行在约 1200 公里的近地轨道,旨在为全球用户提供高速、低延迟的互联网服务。OneWeb 项目专注于填补地面网络覆盖不足的地区,特别是偏远和农村地区。ONEWEB-0157 采用先进通信技术,支持高频段传输,是 OneWeb 扩展其卫星网络、实现全球连接目标的重要组成部分。

基本信息
目录编号:
48055
目录名称:
ONEWEB-0157
国际标识:
2021-025P
轨道中心:
EARTH
卫星名称:
一网星座-0157星
卫星全名:
一网星座-0157星 (ONEWEB-0157 )
卫星状态:
在轨 (已飞行1726 天)
发射日期:
2021-03-25 UTC
国别 :
英国 (GB)
星等 :
--
轨道信息
数据来源 国际轨道数据 AOE轨道数据
星历时间 2025-12-14T21:48:34+0800
1天前
查看轨道信息
2025-12-09T21:00:00+0800
6天前
查看轨道信息
半长轴 7587.905km 7587.886km
偏心率 0.0001357 0.0001364
轨道倾角 87.898° 87.900°
近地点辐角 85.009° 84.841°
升交点赤经 356.908° 357.909°
平近点角 275.120° 246.900°
近地点 1208.74km 1208.716km
远地点 1210.8km 1210.786km
周期 109.633分钟 109.633分钟
每日圈数 13.134695 13.134743
详细信息
平衡模式:
三轴稳定
覆盖范围:
全球
运营商:
一网卫星公司
运营商所在国:
英国
制造商(研发单位):
一网卫星公司
制造商所在国:
英国
使用方式:
暂无
卫星简介
OneWeb卫星网络由648颗重约125公斤的微型卫星组成,运行在1200公里的轨道上。 每颗卫星都能够提供至少每秒8千兆位的吞吐量,以使用其高吞吐量的Ku频段有效载荷为家庭和移动平台提供互联网接入。该卫星仍在工作。
2D轨道图
3D轨道图
轨道高度分析图
轨道倾角分析图
轨道综合分析图
查看轨道综合分析图